SL-8 DEB

Satellite information

Favourite Embed

Satellite Type and Status

DEBRISIN ORBIT

Key statistics

Satellite SL-8 DEB at a glance.

Uptime

13014

Days in orbit

Revolutions

≈ 14.5

Per day

Orbit

LEO

Low Earth Orbit

Inclination

74.0

Latest

Satellite identification and parameters

Extended collection of information and parameters for SL-8 DEB.

Object identification

Identified? True

Debris? True

Object name: SL-8 DEB

International designator: 1990-004C

Object number (NORAD): 20434

Object ID (CCSDS): 20434

Country: COMMONWEALTH OF INDEPENDENT STATES (CIS)

Current information (Y/N): Y

RCS size: SMALL

Orbital parameters

Period: 99.374 minutes

Inclination: 74.0434 deg

SMA: 7106.799 km

Apoapsis: 738.548 km

Periapsis: 718.78 km

RAAN: 170.9368 deg

Eccentricy: 0.00139077

Argument of periapsis: 153.9929 deg

Mean anomaly: 1.8063 deg

Mean motion: 14.49077899 rev/day

Mean motion (dot): 0.00002595 rev/day2

B* drag term: 0.00068926315 1/REarth

Two-line elements (TLE)

Creation date: Sept. 4, 2025, 10:13 a.m.

Reference frame: TEME

Reference center: EARTH

Epoch: Sept. 4, 2025, 6:10 a.m. UTC

TLE line 0: 0 SL-8 DEB

TLE line 1: 1 20434U 90004C 25247.25753654 .00002595 00000-0 68926-3 0 9998

TLE line 2: 2 20434 74.0434 170.9368 0013908 153.9929 1.8063 14.49077899868738

Live tracking on map

Real-time ground track for satellite SL-8 DEB.

In-orbit conjunctions

A list of the most updated potential collisions computed for object SL-8 DEB.

Target Orbit TCA Probability of collision Miss distance Type
DMSP 5D-2 F13 DEB SSO 2025-01-18 21:36:29 0.0001400517 119.0 (m) DEBRIS
DELTA 1 DEB SSO 2024-12-05 04:47:59 0.0001375669 232.0 (m) DEBRIS

Associated space launch

Military communications satellite

SL-8 DEB was lifted into orbit during the mission ‘Kosmos-3M | Strela-2M 47’, on board a Kosmos-3M space rocket.

The launch took place on Jan. 18, 1990, 12:52 p.m. from 133/3 (133L).

For more information about the launch, click the button.

Launch to space Kosmos-3M | Strela-2M 47
Kosmos-3M | Strela-2M 47

Agency: N/A

Status: Launch Successful

Launch date: Jan. 18, 1990, 12:52 p.m. UTC

Rocket: Kosmos-3M

Launch pad: 133/3 (133L)

Location: Plesetsk Cosmodrome, Russian Federation

...

Latest news about this satellite

There are no fresh news available about this satellite. Check back as we update our databases every day.


Newsletter sign-up

Weekly statistics, charts and insights to help you stay on top of the space industry.